Year,Month,Day,Hour,Minute,Value (Times are PST for temperature in C)
2009,09,22,00,00,12.80
2009,09,22,00,01,12.80
2009,09,22,00,02,12.80
2009,09,22,00,03,12.70
2009,09,22,00,04,12.70
2009,09,22,00,05,12.70
2009,09,22,00,06,12.60
2009,09,22,00,07,12.60
2009,09,22,00,08,12.50
2009,09,22,00,09,12.50
2009,09,22,00,10,12.50
2009,09,22,00,11,12.40
2009,09,22,00,12,12.40
2009,09,22,00,13,12.40
2009,09,22,00,14,12.30
2009,09,22,00,15,12.30
2009,09,22,00,16,12.30
2009,09,22,00,17,12.30
2009,09,22,00,18,12.30
2009,09,22,00,19,12.30
2009,09,22,00,20,12.30
2009,09,22,00,21,12.30
2009,09,22,00,22,12.30
2009,09,22,00,23,12.30
2009,09,22,00,24,12.40
2009,09,22,00,25,12.40
2009,09,22,00,26,12.50
2009,09,22,00,27,12.50
2009,09,22,00,28,12.50
2009,09,22,00,29,12.50
2009,09,22,00,30,12.50
2009,09,22,00,31,12.50
2009,09,22,00,32,12.50
2009,09,22,00,33,12.40
2009,09,22,00,34,12.40
2009,09,22,00,35,12.40
2009,09,22,00,36,12.30
2009,09,22,00,37,12.30
2009,09,22,00,38,12.30
2009,09,22,00,39,12.30
2009,09,22,00,40,12.20
2009,09,22,00,41,12.20
2009,09,22,00,42,12.20
2009,09,22,00,43,12.10
2009,09,22,00,44,12.10
2009,09,22,00,45,12.00
2009,09,22,00,46,12.00
2009,09,22,00,47,12.00
2009,09,22,00,48,12.00
2009,09,22,00,49,12.00
2009,09,22,00,50,12.00
2009,09,22,00,51,12.00
2009,09,22,00,52,12.00
2009,09,22,00,53,12.00
2009,09,22,00,54,12.10
2009,09,22,00,55,12.00
2009,09,22,00,56,12.00
2009,09,22,00,57,12.00
2009,09,22,00,58,12.10
2009,09,22,00,59,12.00
2009,09,22,01,00,12.00
2009,09,22,01,01,12.00
2009,09,22,01,02,12.00
2009,09,22,01,03,12.00
2009,09,22,01,04,12.00
2009,09,22,01,05,11.90
2009,09,22,01,06,11.90
2009,09,22,01,07,11.90
2009,09,22,01,08,11.90
2009,09,22,01,09,11.80
2009,09,22,01,10,11.80
2009,09,22,01,11,11.80
2009,09,22,01,12,11.80
2009,09,22,01,13,11.80
2009,09,22,01,14,11.80
2009,09,22,01,15,11.80
2009,09,22,01,16,11.80
2009,09,22,01,17,11.80
2009,09,22,01,18,11.80
2009,09,22,01,19,11.80
2009,09,22,01,20,11.80
2009,09,22,01,21,11.80
2009,09,22,01,22,11.80
2009,09,22,01,23,11.80
2009,09,22,01,24,11.80
2009,09,22,01,25,11.80
2009,09,22,01,26,11.80
2009,09,22,01,27,11.80
2009,09,22,01,28,11.80
2009,09,22,01,29,11.70
2009,09,22,01,30,11.70
2009,09,22,01,31,11.70
2009,09,22,01,32,11.60
2009,09,22,01,33,11.60
2009,09,22,01,34,11.60
2009,09,22,01,35,11.60
2009,09,22,01,36,11.60
2009,09,22,01,37,11.60
2009,09,22,01,38,11.60
2009,09,22,01,39,11.60
2009,09,22,01,40,11.60
2009,09,22,01,41,11.60
2009,09,22,01,42,11.60
2009,09,22,01,43,11.60
2009,09,22,01,44,11.50
2009,09,22,01,45,11.40
2009,09,22,01,46,11.40
2009,09,22,01,47,11.40
2009,09,22,01,48,11.40
2009,09,22,01,49,11.40
2009,09,22,01,50,11.40
2009,09,22,01,51,11.40
2009,09,22,01,52,11.40
2009,09,22,01,53,11.40
2009,09,22,01,54,11.40
2009,09,22,01,55,11.40
2009,09,22,01,56,11.40
2009,09,22,01,57,11.40
2009,09,22,01,58,11.40
2009,09,22,01,59,11.30
2009,09,22,02,00,11.30
2009,09,22,02,01,11.30
2009,09,22,02,02,11.20
2009,09,22,02,03,11.20
2009,09,22,02,04,11.20
2009,09,22,02,05,11.10
2009,09,22,02,06,11.10
2009,09,22,02,07,11.20
2009,09,22,02,08,11.20
2009,09,22,02,09,11.20
2009,09,22,02,10,11.20
2009,09,22,02,11,11.20
2009,09,22,02,12,11.20
2009,09,22,02,13,11.20
2009,09,22,02,14,11.30
2009,09,22,02,15,11.30
2009,09,22,02,16,11.30
2009,09,22,02,17,11.30
2009,09,22,02,18,11.30
2009,09,22,02,19,11.40
2009,09,22,02,20,11.40
2009,09,22,02,21,11.40
2009,09,22,02,22,11.40
2009,09,22,02,23,11.40
2009,09,22,02,24,11.50
2009,09,22,02,25,11.60
2009,09,22,02,26,11.60
2009,09,22,02,27,11.60
2009,09,22,02,28,11.70
2009,09,22,02,29,11.70
2009,09,22,02,30,11.70
2009,09,22,02,31,11.80
2009,09,22,02,32,11.80
2009,09,22,02,33,11.80
2009,09,22,02,34,11.80
2009,09,22,02,35,11.90
2009,09,22,02,36,11.90
2009,09,22,02,37,11.90
2009,09,22,02,38,11.90
2009,09,22,02,39,11.90
2009,09,22,02,40,12.00
2009,09,22,02,41,12.00
2009,09,22,02,42,12.10
2009,09,22,02,43,12.10
2009,09,22,02,44,12.10
2009,09,22,02,45,12.10
2009,09,22,02,46,12.00
2009,09,22,02,47,12.00
2009,09,22,02,48,12.00
2009,09,22,02,49,12.10
2009,09,22,02,50,12.20
2009,09,22,02,51,12.20
2009,09,22,02,52,12.30
2009,09,22,02,53,12.30
2009,09,22,02,54,12.40
2009,09,22,02,55,12.50
2009,09,22,02,56,12.60
2009,09,22,02,57,12.70
2009,09,22,02,58,12.90
2009,09,22,02,59,13.00
2009,09,22,03,00,13.10
2009,09,22,03,01,13.10
2009,09,22,03,02,13.20
2009,09,22,03,03,13.20
2009,09,22,03,04,13.30
2009,09,22,03,05,13.30
2009,09,22,03,06,13.30
2009,09,22,03,07,13.30
2009,09,22,03,08,13.30
2009,09,22,03,09,13.30
2009,09,22,03,10,13.30
2009,09,22,03,11,13.30
2009,09,22,03,12,13.30
2009,09,22,03,13,13.30
2009,09,22,03,14,13.30
2009,09,22,03,15,13.30
2009,09,22,03,16,13.30
2009,09,22,03,17,13.40
2009,09,22,03,18,13.40
2009,09,22,03,19,13.50
2009,09,22,03,20,13.50
2009,09,22,03,21,13.50
2009,09,22,03,22,13.60
2009,09,22,03,23,13.60
2009,09,22,03,24,13.60
2009,09,22,03,25,13.60
2009,09,22,03,26,13.70
2009,09,22,03,27,13.70
2009,09,22,03,28,13.70
2009,09,22,03,29,13.70
2009,09,22,03,30,13.70
2009,09,22,03,31,13.80
2009,09,22,03,32,13.90
2009,09,22,03,33,13.90
2009,09,22,03,34,14.00
2009,09,22,03,35,14.00
2009,09,22,03,36,14.20
2009,09,22,03,37,14.30
2009,09,22,03,38,14.40
2009,09,22,03,39,14.40
2009,09,22,03,40,14.50
2009,09,22,03,41,14.50
2009,09,22,03,42,14.50
2009,09,22,03,43,14.50
2009,09,22,03,44,14.50
2009,09,22,03,45,14.50
2009,09,22,03,46,14.50
2009,09,22,03,47,14.50
2009,09,22,03,48,14.50
2009,09,22,03,49,14.40
2009,09,22,03,50,14.30
2009,09,22,03,51,14.20
2009,09,22,03,52,14.10
2009,09,22,03,53,14.00
2009,09,22,03,54,13.90
2009,09,22,03,55,13.70
2009,09,22,03,56,13.50
2009,09,22,03,57,13.40
2009,09,22,03,58,13.30
2009,09,22,03,59,13.20
2009,09,22,04,00,13.10
2009,09,22,04,01,13.00
2009,09,22,04,02,12.90
2009,09,22,04,03,12.80
2009,09,22,04,04,12.70
2009,09,22,04,05,12.60
2009,09,22,04,06,12.60
2009,09,22,04,07,12.50
2009,09,22,04,08,12.40
2009,09,22,04,09,12.30
2009,09,22,04,10,12.30
2009,09,22,04,11,12.20
2009,09,22,04,12,12.20
2009,09,22,04,13,12.10
2009,09,22,04,14,12.10
2009,09,22,04,15,12.00
2009,09,22,04,16,12.00
2009,09,22,04,17,11.90
2009,09,22,04,18,11.90
2009,09,22,04,19,11.90
2009,09,22,04,20,11.80
2009,09,22,04,21,11.80
2009,09,22,04,22,11.80
2009,09,22,04,23,11.70
2009,09,22,04,24,11.70
2009,09,22,04,25,11.60
2009,09,22,04,26,11.60
2009,09,22,04,27,11.50
2009,09,22,04,28,11.40
2009,09,22,04,29,11.40
2009,09,22,04,30,11.40
2009,09,22,04,31,11.30
2009,09,22,04,32,11.20
2009,09,22,04,33,11.20
2009,09,22,04,34,11.10
2009,09,22,04,35,11.10
2009,09,22,04,36,11.10
2009,09,22,04,37,11.10
2009,09,22,04,38,11.00
2009,09,22,04,39,10.90
2009,09,22,04,40,10.90
2009,09,22,04,41,10.90
2009,09,22,04,42,10.90
2009,09,22,04,43,10.90
2009,09,22,04,44,10.90
2009,09,22,04,45,10.90
2009,09,22,04,46,10.90
2009,09,22,04,47,10.90
2009,09,22,04,48,10.80
2009,09,22,04,49,10.80
2009,09,22,04,50,10.80
2009,09,22,04,51,10.80
2009,09,22,04,52,10.80
2009,09,22,04,53,10.80
2009,09,22,04,54,10.80
2009,09,22,04,55,10.80
2009,09,22,04,56,10.80
2009,09,22,04,57,10.80
2009,09,22,04,58,10.70
2009,09,22,04,59,10.70
2009,09,22,05,00,10.60
2009,09,22,05,01,10.60
2009,09,22,05,02,10.60
2009,09,22,05,03,10.60
2009,09,22,05,04,10.60
2009,09,22,05,05,10.60
2009,09,22,05,06,10.60
2009,09,22,05,07,10.60
2009,09,22,05,08,10.60
2009,09,22,05,09,10.60
2009,09,22,05,10,10.60
2009,09,22,05,11,10.60
2009,09,22,05,12,10.60
2009,09,22,05,13,10.60
2009,09,22,05,14,10.60
2009,09,22,05,15,10.50
2009,09,22,05,16,10.40
2009,09,22,05,17,10.40
2009,09,22,05,18,10.40
2009,09,22,05,19,10.40
2009,09,22,05,20,10.40
2009,09,22,05,21,10.40
2009,09,22,05,22,10.40
2009,09,22,05,23,10.40
2009,09,22,05,24,10.40
2009,09,22,05,25,10.30
2009,09,22,05,26,10.30
2009,09,22,05,27,10.30
2009,09,22,05,28,10.30
2009,09,22,05,29,10.20
2009,09,22,05,30,10.20
2009,09,22,05,31,10.20
2009,09,22,05,32,10.20
2009,09,22,05,33,10.10
2009,09,22,05,34,10.10
2009,09,22,05,35,10.10
2009,09,22,05,36,10.10
2009,09,22,05,37,10.10
2009,09,22,05,38,10.20
2009,09,22,05,39,10.20
2009,09,22,05,40,10.10
2009,09,22,05,41,10.10
2009,09,22,05,42,10.10
2009,09,22,05,43,10.10
2009,09,22,05,44,10.10
2009,09,22,05,45,10.10
2009,09,22,05,46,10.10
2009,09,22,05,47,10.10
2009,09,22,05,48,10.10
2009,09,22,05,49,10.10
2009,09,22,05,50,10.20
2009,09,22,05,51,10.20
2009,09,22,05,52,10.20
2009,09,22,05,53,10.20
2009,09,22,05,54,10.20
2009,09,22,05,55,10.20
2009,09,22,05,56,10.20
2009,09,22,05,57,10.20
2009,09,22,05,58,10.20
2009,09,22,05,59,10.20
2009,09,22,06,00,10.30
2009,09,22,06,01,10.30
2009,09,22,06,02,10.30
2009,09,22,06,03,10.30
2009,09,22,06,04,10.30
2009,09,22,06,05,10.30
2009,09,22,06,06,10.30
2009,09,22,06,07,10.20
2009,09,22,06,08,10.20
2009,09,22,06,09,10.20
2009,09,22,06,10,10.30
2009,09,22,06,11,10.30
2009,09,22,06,12,10.20
2009,09,22,06,13,10.20
2009,09,22,06,14,10.20
2009,09,22,06,15,10.20
2009,09,22,06,16,10.20
2009,09,22,06,17,10.20
2009,09,22,06,18,10.20
2009,09,22,06,19,10.30
2009,09,22,06,20,10.30
2009,09,22,06,21,10.30
2009,09,22,06,22,10.30
2009,09,22,06,23,10.40
2009,09,22,06,24,10.40
2009,09,22,06,25,10.40
2009,09,22,06,26,10.40
2009,09,22,06,27,10.40
2009,09,22,06,28,10.40
2009,09,22,06,29,10.40
2009,09,22,06,30,10.40
2009,09,22,06,31,10.40
2009,09,22,06,32,10.40
2009,09,22,06,33,10.40
2009,09,22,06,34,10.30
2009,09,22,06,35,10.30
2009,09,22,06,36,10.30
2009,09,22,06,37,10.30
2009,09,22,06,38,10.30
2009,09,22,06,39,10.30
2009,09,22,06,40,10.20
2009,09,22,06,41,10.20
2009,09,22,06,42,10.20
2009,09,22,06,43,10.20
2009,09,22,06,44,10.20
2009,09,22,06,45,10.20
2009,09,22,06,46,10.20
2009,09,22,06,47,10.20
2009,09,22,06,48,10.10
2009,09,22,06,49,10.10
2009,09,22,06,50,10.10
2009,09,22,06,51,10.10
2009,09,22,06,52,10.10
2009,09,22,06,53,10.10
2009,09,22,06,54,10.10
2009,09,22,06,55,10.00
2009,09,22,06,56,9.90
2009,09,22,06,57,9.90
2009,09,22,06,58,9.90
2009,09,22,06,59,9.90
2009,09,22,07,00,10.00
2009,09,22,07,01,10.10
2009,09,22,07,02,10.10
2009,09,22,07,03,10.10
2009,09,22,07,04,10.10
2009,09,22,07,05,10.10
2009,09,22,07,06,10.10
2009,09,22,07,07,10.10
2009,09,22,07,08,10.10
2009,09,22,07,09,10.10
2009,09,22,07,10,10.10
2009,09,22,07,11,10.10
2009,09,22,07,12,10.10
2009,09,22,07,13,10.10
2009,09,22,07,14,10.10
2009,09,22,07,15,10.10
2009,09,22,07,16,10.10
2009,09,22,07,17,10.10
2009,09,22,07,18,10.10
2009,09,22,07,19,10.10
2009,09,22,07,20,10.10
2009,09,22,07,21,10.10
2009,09,22,07,22,10.10
2009,09,22,07,23,10.10
2009,09,22,07,24,10.20
2009,09,22,07,25,10.20
2009,09,22,07,26,10.30
2009,09,22,07,27,10.40
2009,09,22,07,28,10.40
2009,09,22,07,29,10.40
2009,09,22,07,30,10.60
2009,09,22,07,31,10.60
2009,09,22,07,32,10.60
2009,09,22,07,33,10.70
2009,09,22,07,34,10.70
2009,09,22,07,35,10.70
2009,09,22,07,36,10.80
2009,09,22,07,37,10.80
2009,09,22,07,38,10.90
2009,09,22,07,39,10.90
2009,09,22,07,40,10.90
2009,09,22,07,41,10.90
2009,09,22,07,42,10.90
2009,09,22,07,43,11.00
2009,09,22,07,44,11.10
2009,09,22,07,45,11.20
2009,09,22,07,46,11.20
2009,09,22,07,47,11.30
2009,09,22,07,48,11.40
2009,09,22,07,49,11.40
2009,09,22,07,50,11.50
2009,09,22,07,51,11.60
2009,09,22,07,52,11.60
2009,09,22,07,53,11.70
2009,09,22,07,54,11.70
2009,09,22,07,55,11.80
2009,09,22,07,56,11.90
2009,09,22,07,57,12.00
2009,09,22,07,58,12.10
2009,09,22,07,59,12.10
2009,09,22,08,00,12.20
2009,09,22,08,01,12.30
2009,09,22,08,02,12.40
2009,09,22,08,03,12.50
2009,09,22,08,04,12.60
2009,09,22,08,05,12.60
2009,09,22,08,06,12.70
2009,09,22,08,07,12.80
2009,09,22,08,08,12.80
2009,09,22,08,09,12.90
2009,09,22,08,10,12.90
2009,09,22,08,11,13.00
2009,09,22,08,12,13.00
2009,09,22,08,13,13.00
2009,09,22,08,14,13.10
2009,09,22,08,15,13.10
2009,09,22,08,16,13.10
2009,09,22,08,17,13.20
2009,09,22,08,18,13.30
2009,09,22,08,19,13.40
2009,09,22,08,20,13.50
2009,09,22,08,21,13.60
2009,09,22,08,22,13.60
2009,09,22,08,23,13.80
2009,09,22,08,24,13.90
2009,09,22,08,25,14.10
2009,09,22,08,26,14.20
2009,09,22,08,27,14.30
2009,09,22,08,28,14.50
2009,09,22,08,29,14.60
2009,09,22,08,30,14.60
2009,09,22,08,31,14.70
2009,09,22,08,32,14.80
2009,09,22,08,33,14.90
2009,09,22,08,34,15.00
2009,09,22,08,35,15.10
2009,09,22,08,36,15.20
2009,09,22,08,37,15.30
2009,09,22,08,38,15.50
2009,09,22,08,39,15.60
2009,09,22,08,40,15.80
2009,09,22,08,41,16.00
2009,09,22,08,42,16.20
2009,09,22,08,43,16.30
2009,09,22,08,44,16.50
2009,09,22,08,45,16.70
2009,09,22,08,46,16.90
2009,09,22,08,47,17.00
2009,09,22,08,48,17.20
2009,09,22,08,49,17.40
2009,09,22,08,50,17.50
2009,09,22,08,51,17.70
2009,09,22,08,52,17.80
2009,09,22,08,53,17.90
2009,09,22,08,54,18.00
2009,09,22,08,55,18.20
2009,09,22,08,56,18.30
2009,09,22,08,57,18.40
2009,09,22,08,58,18.50
2009,09,22,08,59,18.60
2009,09,22,09,00,18.70
2009,09,22,09,01,18.80
2009,09,22,09,02,18.90
2009,09,22,09,03,19.00
2009,09,22,09,04,19.10
2009,09,22,09,05,19.10
2009,09,22,09,06,19.10
2009,09,22,09,07,19.20
2009,09,22,09,08,19.30
2009,09,22,09,09,19.30
2009,09,22,09,10,19.40
2009,09,22,09,11,19.40
2009,09,22,09,12,19.40
2009,09,22,09,13,19.40
2009,09,22,09,14,19.50
2009,09,22,09,15,19.50
2009,09,22,09,16,19.60
2009,09,22,09,17,19.60
2009,09,22,09,18,19.60
2009,09,22,09,19,19.70
2009,09,22,09,20,19.70
2009,09,22,09,21,19.80
2009,09,22,09,22,19.80
2009,09,22,09,23,19.90
2009,09,22,09,24,19.90
2009,09,22,09,25,19.90
2009,09,22,09,26,19.90
2009,09,22,09,27,20.00
2009,09,22,09,28,20.10
2009,09,22,09,29,20.10
2009,09,22,09,30,20.10
2009,09,22,09,31,20.10
2009,09,22,09,32,20.10
2009,09,22,09,33,20.10
2009,09,22,09,34,20.20
2009,09,22,09,35,20.20
2009,09,22,09,36,20.20
2009,09,22,09,37,20.20
2009,09,22,09,38,20.20
2009,09,22,09,39,20.30
2009,09,22,09,40,20.30
2009,09,22,09,41,20.40
2009,09,22,09,42,20.40
2009,09,22,09,43,20.50
2009,09,22,09,44,20.50
2009,09,22,09,45,20.50
2009,09,22,09,46,20.50
2009,09,22,09,47,20.50
2009,09,22,09,48,20.50
2009,09,22,09,49,20.50
2009,09,22,09,50,20.50
2009,09,22,09,51,20.50
2009,09,22,09,52,20.50
2009,09,22,09,53,20.60
2009,09,22,09,54,20.60
2009,09,22,09,55,20.60
2009,09,22,09,56,20.60
2009,09,22,09,57,20.70
2009,09,22,09,58,20.70
2009,09,22,09,59,20.70
2009,09,22,10,00,20.70
2009,09,22,10,01,20.70
2009,09,22,10,02,20.80
2009,09,22,10,03,20.80
2009,09,22,10,04,20.80
2009,09,22,10,05,20.80
2009,09,22,10,06,20.90
2009,09,22,10,07,20.90
2009,09,22,10,08,20.90
2009,09,22,10,09,20.90
2009,09,22,10,10,20.90
2009,09,22,10,11,20.90
2009,09,22,10,12,21.00
2009,09,22,10,13,21.00
2009,09,22,10,14,21.10
2009,09,22,10,15,21.10
2009,09,22,10,16,21.20
2009,09,22,10,17,21.20
2009,09,22,10,18,21.10
2009,09,22,10,19,21.10
2009,09,22,10,20,21.10
2009,09,22,10,21,21.10
2009,09,22,10,22,21.10
2009,09,22,10,23,21.10
2009,09,22,10,24,21.10
2009,09,22,10,25,21.10
2009,09,22,10,26,21.10
2009,09,22,10,27,21.10
2009,09,22,10,28,21.10
2009,09,22,10,29,21.20
2009,09,22,10,30,21.20
2009,09,22,10,31,21.20
2009,09,22,10,32,21.30
2009,09,22,10,33,21.30
2009,09,22,10,34,21.30
2009,09,22,10,35,21.30
2009,09,22,10,36,21.30
2009,09,22,10,37,21.40
2009,09,22,10,38,21.40
2009,09,22,10,39,21.40
2009,09,22,10,40,21.50
2009,09,22,10,41,21.60
2009,09,22,10,42,21.60
2009,09,22,10,43,21.60
2009,09,22,10,44,21.60
2009,09,22,10,45,21.70
2009,09,22,10,46,21.70
2009,09,22,10,47,21.70
2009,09,22,10,48,21.70
2009,09,22,10,49,21.80
2009,09,22,10,50,21.80
2009,09,22,10,51,21.80
2009,09,22,10,52,21.80
2009,09,22,10,53,21.80
2009,09,22,10,54,21.80
2009,09,22,10,55,21.90
2009,09,22,10,56,21.90
2009,09,22,10,57,21.90
2009,09,22,10,58,22.00
2009,09,22,10,59,22.00
2009,09,22,11,00,22.00
2009,09,22,11,01,22.00
2009,09,22,11,02,21.90
2009,09,22,11,03,21.90
2009,09,22,11,04,21.80
2009,09,22,11,05,21.80
2009,09,22,11,06,21.70
2009,09,22,11,07,21.70
2009,09,22,11,08,21.70
2009,09,22,11,09,21.70
2009,09,22,11,10,21.70
2009,09,22,11,11,21.70
2009,09,22,11,12,21.70
2009,09,22,11,13,21.70
2009,09,22,11,14,21.70
2009,09,22,11,15,21.70
2009,09,22,11,16,21.70
2009,09,22,11,17,21.70
2009,09,22,11,18,21.80
2009,09,22,11,19,21.80
2009,09,22,11,20,21.70
2009,09,22,11,21,21.70
2009,09,22,11,22,21.70
2009,09,22,11,23,21.70
2009,09,22,11,24,21.70
2009,09,22,11,25,21.80
2009,09,22,11,26,21.80
2009,09,22,11,27,21.90
2009,09,22,11,28,22.00
2009,09,22,11,29,22.00
2009,09,22,11,30,22.00
2009,09,22,11,31,22.00
2009,09,22,11,32,22.00
2009,09,22,11,33,22.00
2009,09,22,11,34,22.00
2009,09,22,11,35,22.00
2009,09,22,11,36,22.00
2009,09,22,11,37,21.90
2009,09,22,11,38,21.80
2009,09,22,11,39,21.70
2009,09,22,11,40,21.70
2009,09,22,11,41,21.60
2009,09,22,11,42,21.60
2009,09,22,11,43,21.60
2009,09,22,11,44,21.60
2009,09,22,11,45,21.70
2009,09,22,11,46,21.70
2009,09,22,11,47,21.80
2009,09,22,11,48,21.80
2009,09,22,11,49,21.80
2009,09,22,11,50,21.90
2009,09,22,11,51,22.00
2009,09,22,11,52,22.00
2009,09,22,11,53,22.00
2009,09,22,11,54,22.00
2009,09,22,11,55,21.90
2009,09,22,11,56,21.90
2009,09,22,11,57,21.90
2009,09,22,11,58,22.00
2009,09,22,11,59,22.10
2009,09,22,12,00,22.10
2009,09,22,12,01,22.20
2009,09,22,12,02,22.20
2009,09,22,12,03,22.30
2009,09,22,12,04,22.30
2009,09,22,12,05,22.30
2009,09,22,12,06,22.30
2009,09,22,12,07,22.30
2009,09,22,12,08,22.40
2009,09,22,12,09,22.40
2009,09,22,12,10,22.40
2009,09,22,12,11,22.50
2009,09,22,12,12,22.60
2009,09,22,12,13,22.60
2009,09,22,12,14,22.70
2009,09,22,12,15,22.80
2009,09,22,12,16,22.80
2009,09,22,12,17,22.90
2009,09,22,12,18,22.90
2009,09,22,12,19,23.00
2009,09,22,12,20,23.10
2009,09,22,12,21,23.20
2009,09,22,12,22,23.30
2009,09,22,12,23,23.30
2009,09,22,12,24,23.30
2009,09,22,12,25,23.30
2009,09,22,12,26,23.30
2009,09,22,12,27,23.30
2009,09,22,12,28,23.30
2009,09,22,12,29,23.40
2009,09,22,12,30,23.50
2009,09,22,12,31,23.60
2009,09,22,12,32,23.70
2009,09,22,12,33,23.70
2009,09,22,12,34,23.60
2009,09,22,12,35,23.60
2009,09,22,12,36,23.50
2009,09,22,12,37,23.40
2009,09,22,12,38,23.30
2009,09,22,12,39,23.30
2009,09,22,12,40,23.30
2009,09,22,12,41,23.30
2009,09,22,12,42,23.40
2009,09,22,12,43,23.40
2009,09,22,12,44,23.30
2009,09,22,12,45,23.40
2009,09,22,12,46,23.40
2009,09,22,12,47,23.40
2009,09,22,12,48,23.50
2009,09,22,12,49,23.60
2009,09,22,12,50,23.60
2009,09,22,12,51,23.60
2009,09,22,12,52,23.70
2009,09,22,12,53,23.70
2009,09,22,12,54,23.70
2009,09,22,12,55,23.70
2009,09,22,12,56,23.70
2009,09,22,12,57,23.60
2009,09,22,12,58,23.60
2009,09,22,12,59,23.60
2009,09,22,13,00,23.60
2009,09,22,13,01,23.60
2009,09,22,13,02,23.70
2009,09,22,13,03,23.70
2009,09,22,13,04,23.70
2009,09,22,13,05,23.70
2009,09,22,13,06,23.70
2009,09,22,13,07,23.80
2009,09,22,13,08,23.80
2009,09,22,13,09,23.90
2009,09,22,13,10,23.90
2009,09,22,13,11,23.90
2009,09,22,13,12,24.00
2009,09,22,13,13,24.00
2009,09,22,13,14,23.70
2009,09,22,13,15,23.00
2009,09,22,13,16,22.40
2009,09,22,13,17,21.80
2009,09,22,13,18,21.10
2009,09,22,13,19,20.60
2009,09,22,13,20,20.10
2009,09,22,13,21,19.70
2009,09,22,13,22,19.30
2009,09,22,13,23,19.00
2009,09,22,13,24,18.80
2009,09,22,13,25,18.60
2009,09,22,13,26,18.60
2009,09,22,13,27,18.50
2009,09,22,13,28,18.40
2009,09,22,13,29,18.20
2009,09,22,13,30,18.00
2009,09,22,13,31,18.00
2009,09,22,13,32,18.10
2009,09,22,13,33,18.20
2009,09,22,13,34,18.30
2009,09,22,13,35,18.40
2009,09,22,13,36,18.60
2009,09,22,13,37,18.70
2009,09,22,13,38,18.90
2009,09,22,13,39,19.10
2009,09,22,13,40,19.10
2009,09,22,13,41,19.10
2009,09,22,13,42,19.20
2009,09,22,13,43,19.30
2009,09,22,13,44,19.40
2009,09,22,13,45,19.40
2009,09,22,13,46,19.40
2009,09,22,13,47,19.40
2009,09,22,13,48,19.40
2009,09,22,13,49,19.30
2009,09,22,13,50,19.30
2009,09,22,13,51,19.20
2009,09,22,13,52,19.20
2009,09,22,13,53,19.20
2009,09,22,13,54,19.20
2009,09,22,13,55,19.30
2009,09,22,13,56,19.40
2009,09,22,13,57,19.40
2009,09,22,13,58,19.50
2009,09,22,13,59,19.70
2009,09,22,14,00,19.80
2009,09,22,14,01,19.80
2009,09,22,14,02,19.80
2009,09,22,14,03,19.80
2009,09,22,14,04,19.90
2009,09,22,14,05,19.90
2009,09,22,14,06,19.90
2009,09,22,14,07,20.00
2009,09,22,14,08,20.10
2009,09,22,14,09,20.20
2009,09,22,14,10,20.30
2009,09,22,14,11,20.50
2009,09,22,14,12,20.60
2009,09,22,14,13,20.80
2009,09,22,14,14,20.90
2009,09,22,14,15,21.10
2009,09,22,14,16,21.30
2009,09,22,14,17,21.40
2009,09,22,14,18,21.60
2009,09,22,14,19,21.70
2009,09,22,14,20,21.80
2009,09,22,14,21,21.80
2009,09,22,14,22,21.90
2009,09,22,14,23,21.90
2009,09,22,14,24,21.90
2009,09,22,14,25,21.80
2009,09,22,14,26,21.70
2009,09,22,14,27,21.70
2009,09,22,14,28,21.60
2009,09,22,14,29,21.60
2009,09,22,14,30,21.60
2009,09,22,14,31,21.70
2009,09,22,14,32,21.70
2009,09,22,14,33,21.70
2009,09,22,14,34,21.70
2009,09,22,14,35,21.80
2009,09,22,14,36,21.90
2009,09,22,14,37,22.00
2009,09,22,14,38,22.10
2009,09,22,14,39,22.20
2009,09,22,14,40,22.30
2009,09,22,14,41,22.40
2009,09,22,14,42,22.60
2009,09,22,14,43,22.70
2009,09,22,14,44,22.80
2009,09,22,14,45,22.90
2009,09,22,14,46,22.90
2009,09,22,14,47,23.00
2009,09,22,14,48,23.10
2009,09,22,14,49,23.20
2009,09,22,14,50,23.20
2009,09,22,14,51,23.20
2009,09,22,14,52,23.30
2009,09,22,14,53,23.30
2009,09,22,14,54,23.30
2009,09,22,14,55,23.40
2009,09,22,14,56,23.50
2009,09,22,14,57,23.70
2009,09,22,14,58,23.70
2009,09,22,14,59,23.70
2009,09,22,15,00,23.60
2009,09,22,15,01,23.60
2009,09,22,15,02,23.50
2009,09,22,15,03,23.60
2009,09,22,15,04,23.60
2009,09,22,15,05,23.60
2009,09,22,15,06,23.70
2009,09,22,15,07,23.70
2009,09,22,15,08,23.70
2009,09,22,15,09,23.70
2009,09,22,15,10,23.70
2009,09,22,15,11,23.80
2009,09,22,15,12,23.90
2009,09,22,15,13,24.00
2009,09,22,15,14,24.00
2009,09,22,15,15,23.90
2009,09,22,15,16,23.70
2009,09,22,15,17,23.70
2009,09,22,15,18,23.60
2009,09,22,15,19,23.60
2009,09,22,15,20,23.70
2009,09,22,15,21,23.60
2009,09,22,15,22,23.60
2009,09,22,15,23,23.60
2009,09,22,15,24,23.60
2009,09,22,15,25,23.70
2009,09,22,15,26,23.70
2009,09,22,15,27,23.70
2009,09,22,15,28,23.70
2009,09,22,15,29,23.70
2009,09,22,15,30,23.70
2009,09,22,15,31,23.70
2009,09,22,15,32,23.70
2009,09,22,15,33,23.70
2009,09,22,15,34,23.60
2009,09,22,15,35,23.50
2009,09,22,15,36,23.40
2009,09,22,15,37,23.40
2009,09,22,15,38,23.40
2009,09,22,15,39,23.40
2009,09,22,15,40,23.50
2009,09,22,15,41,23.50
2009,09,22,15,42,23.40
2009,09,22,15,43,23.30
2009,09,22,15,44,23.30
2009,09,22,15,45,23.30
2009,09,22,15,46,23.50
2009,09,22,15,47,23.60
2009,09,22,15,48,23.70
2009,09,22,15,49,23.90
2009,09,22,15,50,23.90
2009,09,22,15,51,24.00
2009,09,22,15,52,24.00
2009,09,22,15,53,23.90
2009,09,22,15,54,23.80
2009,09,22,15,55,23.80
2009,09,22,15,56,23.70
2009,09,22,15,57,23.80
2009,09,22,15,58,23.90
2009,09,22,15,59,24.00
2009,09,22,16,00,24.10
2009,09,22,16,01,24.30
2009,09,22,16,02,24.40
2009,09,22,16,03,24.60
2009,09,22,16,04,24.70
2009,09,22,16,05,24.80
2009,09,22,16,06,24.90
2009,09,22,16,07,24.90
2009,09,22,16,08,25.00
2009,09,22,16,09,25.10
2009,09,22,16,10,25.10
2009,09,22,16,11,25.00
2009,09,22,16,12,24.90
2009,09,22,16,13,24.90
2009,09,22,16,14,24.90
2009,09,22,16,15,24.80
2009,09,22,16,16,24.60
2009,09,22,16,17,24.50
2009,09,22,16,18,24.30
2009,09,22,16,19,24.20
2009,09,22,16,20,24.10
2009,09,22,16,21,24.00
2009,09,22,16,22,23.80
2009,09,22,16,23,23.70
2009,09,22,16,24,23.60
2009,09,22,16,25,23.50
2009,09,22,16,26,23.40
2009,09,22,16,27,23.40
2009,09,22,16,28,23.30
2009,09,22,16,29,23.30
2009,09,22,16,30,23.10
2009,09,22,16,31,22.90
2009,09,22,16,32,22.70
2009,09,22,16,33,22.60
2009,09,22,16,34,22.50
2009,09,22,16,35,22.40
2009,09,22,16,36,22.30
2009,09,22,16,37,22.30
2009,09,22,16,38,22.20
2009,09,22,16,39,22.20
2009,09,22,16,40,22.20
2009,09,22,16,41,22.30
2009,09,22,16,42,22.20
2009,09,22,16,43,22.10
2009,09,22,16,44,22.10
2009,09,22,16,45,22.00
2009,09,22,16,46,22.00
2009,09,22,16,47,22.00
2009,09,22,16,48,22.10
2009,09,22,16,49,22.10
2009,09,22,16,50,22.20
2009,09,22,16,51,22.30
2009,09,22,16,52,22.30
2009,09,22,16,53,22.30
2009,09,22,16,54,22.30
2009,09,22,16,55,22.20
2009,09,22,16,56,22.10
2009,09,22,16,57,22.10
2009,09,22,16,58,22.10
2009,09,22,16,59,22.10
2009,09,22,17,00,22.10
2009,09,22,17,01,22.10
2009,09,22,17,02,22.10
2009,09,22,17,03,22.00
2009,09,22,17,04,21.90
2009,09,22,17,05,21.90
2009,09,22,17,06,21.90
2009,09,22,17,07,21.10
2009,09,22,17,08,21.00
2009,09,22,17,09,21.00
2009,09,22,17,10,21.00
2009,09,22,17,11,21.00
2009,09,22,17,12,21.00
2009,09,22,17,13,21.00
2009,09,22,17,14,21.00
2009,09,22,17,15,21.00
2009,09,22,17,16,21.10
2009,09,22,17,17,21.10
2009,09,22,17,18,21.20
2009,09,22,17,19,21.30